| time (UTC) | temp F | wind direction | speed MPH | gust MPH | rain 1hr in | rain 24hr in | rain mn in | humidity % | barometer mb |
| 20260831010108 | 71 | 124 | 0.0 | 0.0 | 0.00 | 0.01 | 0.01 | 93 | 1017.1 |
| 20260831004548 | 71 | 124 | 0.0 | 0.0 | 0.00 | 0.01 | 0.01 | 93 | 1016.9 |
| 20260831003038 | 71 | 124 | 0.0 | 0.0 | 0.00 | 0.01 | 0.01 | 93 | 1016.9 |
| 20260831001552 | 72 | 124 | 0.0 | 0.0 | 0.00 | 0.01 | 0.01 | 92 | 1016.8 |
| 20260831000039 | 72 | 124 | 0.0 | 0.0 | 0.00 | 0.01 | 0.01 | 91 | 1016.7 |
| 20260830234537 | 72 | 124 | 0.0 | 0.0 | 0.00 | 0.01 | 0.01 | 91 | 1016.6 |
| 20260830233036 | 73 | 124 | 0.0 | 0.0 | 0.00 | 0.01 | 0.01 | 89 | 1016.2 |
| 20260830231536 | 73 | 124 | 0.0 | 0.0 | 0.00 | 0.01 | 0.01 | 89 | 1015.9 |
| 20260830230038 | 74 | 125 | 0.0 | 0.0 | 0.00 | 0.01 | 0.01 | 87 | 1015.6 |
| 20260830224545 | 74 | 125 | 0.0 | 0.0 | 0.00 | 0.01 | 0.01 | 87 | 1015.4 |
| 20260830223033 | 74 | 125 | 0.0 | 0.0 | 0.00 | 0.01 | 0.01 | 87 | 1015.4 |
| 20260830221532 | 74 | 208 | 0.0 | 0.0 | 0.00 | 0.01 | 0.01 | 88 | 1014.9 |
| 20260830220033 | 73 | 123 | 0.0 | 5.0 | 0.00 | 0.01 | 0.01 | 87 | 1014.9 |
| 20260830214531 | 74 | 111 | 2.0 | 6.0 | 0.00 | 0.01 | 0.01 | 88 | 1014.8 |
| 20260830213028 | 74 | 182 | 0.0 | 0.0 | 0.00 | 0.01 | 0.01 | 88 | 1015.4 |
| 20260830211528 | 73 | 304 | 0.0 | 0.0 | 0.00 | 0.01 | 0.01 | 89 | 1015.4 |
| 20260830210026 | 73 | 211 | 0.0 | 0.0 | 0.00 | 0.01 | 0.01 | 89 | 1015.6 |
| 20260830204526 | 73 | 252 | 0.0 | 4.0 | 0.00 | 0.01 | 0.01 | 89 | 1015.7 |
| 20260830203023 | 73 | 231 | 0.0 | 2.0 | 0.00 | 0.01 | 0.01 | 89 | 1015.6 |
| 20260830201523 | 72 | 217 | 0.0 | 4.0 | 0.00 | 0.01 | 0.01 | 89 | 1015.6 |
| 20260830200020 | 72 | 128 | 0.0 | 0.0 | 0.00 | 0.01 | 0.01 | 87 | 1016.0 |
| 20260830194518 | 73 | 127 | 0.0 | 0.0 | 0.00 | 0.01 | 0.01 | 87 | 1016.3 |
| 20260830193017 | 73 | 121 | 1.0 | 3.0 | 0.00 | 0.01 | 0.01 | 85 | 1016.5 |
| 20260830191513 | 73 | 259 | 0.0 | 0.0 | 0.00 | 0.01 | 0.01 | 84 | 1016.8 |
| 20260830190017 | 74 | 267 | 0.0 | 2.0 | 0.00 | 0.01 | 0.01 | 81 | 1017.2 |
| 20260830184514 | 74 | 267 | 0.0 | 4.0 | 0.00 | 0.01 | 0.01 | 82 | 1017.5 |
| 20260830183013 | 74 | 277 | 0.0 | 2.0 | 0.00 | 0.01 | 0.01 | 80 | 1017.7 |
| 20260830181510 | 74 | 277 | 0.0 | 3.0 | 0.00 | 0.01 | 0.01 | 81 | 1017.7 |
| 20260830180010 | 74 | 269 | 0.0 | 4.0 | 0.00 | 0.01 | 0.01 | 80 | 1017.7 |
| 20260830174517 | 74 | 274 | 0.0 | 4.0 | 0.00 | 0.01 | 0.01 | 78 | 1017.7 |
| 20260830173005 | 74 | 293 | 0.0 | 4.0 | 0.00 | 0.01 | 0.01 | 83 | 1017.9 |
| 20260830171503 | 73 | 296 | 0.0 | 4.0 | 0.00 | 0.01 | 0.01 | 83 | 1017.9 |
| 20260830170002 | 72 | 255 | 1.0 | 6.0 | 0.01 | 0.01 | 0.01 | 84 | 1018.3 |
| 20260830164502 | 72 | 285 | 1.0 | 5.0 | 0.01 | 0.01 | 0.01 | 85 | 1018.6 |
| 20260830163105 | 72 | 277 | 5.0 | 8.0 | 0.01 | 0.01 | 0.01 | 85 | 1018.7 |
| 20260830161632 | 71 | 288 | 1.0 | 4.0 | 0.01 | 0.01 | 0.01 | 87 | 1018.6 |
| 20260830160059 | 71 | 246 | 0.0 | 3.0 | 0.00 | 0.00 | 0.00 | 88 | 1018.6 |
| 20260830154558 | 71 | 248 | 2.0 | 9.0 | 0.00 | 0.00 | 0.00 | 86 | 1018.6 |
| 20260830153056 | 72 | 282 | 2.0 | 4.0 | 0.00 | 0.00 | 0.00 | 84 | 1018.6 |
| 20260830151555 | 72 | 255 | 0.0 | 3.0 | 0.00 | 0.00 | 0.00 | 82 | 1018.3 |
| 20260830150053 | 72 | 254 | 0.0 | 0.0 | 0.00 | 0.00 | 0.00 | 83 | 1018.2 |
| 20260830144549 | 72 | 253 | 0.0 | 0.0 | 0.00 | 0.00 | 0.00 | 85 | 1017.9 |
| 20260830143050 | 71 | 253 | 0.0 | 0.0 | 0.00 | 0.00 | 0.00 | 85 | 1017.9 |
| 20260830141548 | 71 | 253 | 0.0 | 1.0 | 0.00 | 0.00 | 0.00 | 85 | 1017.7 |
| 20260830140056 | 71 | 253 | 0.0 | 2.0 | 0.00 | 0.00 | 0.00 | 84 | 1017.5 |
| 20260830134551 | 71 | 253 | 0.0 | 4.0 | 0.00 | 0.00 | 0.00 | 82 | 1017.2 |
| 20260830133045 | 71 | 236 | 0.0 | 3.0 | 0.00 | 0.00 | 0.00 | 80 | 1017.0 |
| 20260830131604 | 70 | 173 | 0.0 | 5.0 | 0.00 | 0.00 | 0.00 | 81 | 1017.0 |
| 20260830130142 | 70 | 147 | 1.0 | 5.0 | 0.00 | 0.00 | 0.00 | 80 | 1017.1 |
| 20260830124540 | 69 | 286 | 0.0 | 4.0 | 0.00 | 0.00 | 0.00 | 81 | 1017.2 |
| 20260830123039 | 69 | 281 | 0.0 | 3.0 | 0.00 | 0.00 | 0.00 | 81 | 1017.1 |
| 20260830121539 | 69 | 247 | 0.0 | 4.0 | 0.00 | 0.00 | 0.00 | 80 | 1017.2 |
| 20260830120038 | 69 | 270 | 0.0 | 4.0 | 0.00 | 0.00 | 0.00 | 80 | 1017.2 |
| 20260830114547 | 69 | 300 | 0.0 | 3.0 | 0.00 | 0.00 | 0.00 | 80 | 1017.2 |
| 20260830113040 | 69 | 119 | 0.0 | 1.0 | 0.00 | 0.00 | 0.00 | 80 | 1017.1 |
| 20260830111536 | 69 | 44 | 0.0 | 2.0 | 0.00 | 0.00 | 0.00 | 80 | 1017.0 |
| 20260830110046 | 69 | 305 | 0.0 | 0.0 | 0.00 | 0.00 | 0.00 | 81 | 1016.9 |
| 20260830104535 | 69 | 306 | 0.0 | 2.0 | 0.00 | 0.00 | 0.00 | 80 | 1017.1 |
| 20260830103034 | 69 | 308 | 0.0 | 0.0 | 0.00 | 0.00 | 0.00 | 79 | 1017.1 |
| 20260830101534 | 69 | 309 | 0.0 | 0.0 | 0.00 | 0.00 | 0.00 | 79 | 1017.2 |
| 20260830100033 | 69 | 255 | 0.0 | 2.0 | 0.00 | 0.00 | 0.00 | 78 | 1017.2 |
| 20260830094532 | 69 | 257 | 0.0 | 2.0 | 0.00 | 0.00 | 0.00 | 80 | 1017.4 |
| 20260830093033 | 69 | 227 | 0.0 | 0.0 | 0.00 | 0.00 | 0.00 | 79 | 1017.2 |
| 20260830091530 | 69 | 227 | 0.0 | 3.0 | 0.00 | 0.00 | 0.00 | 79 | 1017.3 |
| 20260830090030 | 68 | 223 | 0.0 | 2.0 | 0.00 | 0.00 | 0.00 | 80 | 1017.2 |
| 20260830084527 | 68 | 240 | 0.0 | 2.0 | 0.00 | 0.00 | 0.00 | 81 | 1017.1 |
| 20260830083024 | 67 | 206 | 0.0 | 0.0 | 0.00 | 0.00 | 0.00 | 82 | 1017.3 |
| 20260830081526 | 67 | 203 | 0.0 | 3.0 | 0.00 | 0.00 | 0.00 | 83 | 1017.3 |
| 20260830080022 | 67 | 161 | 0.0 | 0.0 | 0.00 | 0.00 | 0.00 | 82 | 1017.4 |
| 20260830074538 | 67 | 153 | 0.0 | 0.0 | 0.00 | 0.00 | 0.00 | 84 | 1017.5 |
| 20260830073019 | 67 | 153 | 0.0 | 0.0 | 0.00 | 0.00 | 0.00 | 85 | 1017.6 |
| 20260830071519 | 66 | 153 | 0.0 | 0.0 | 0.00 | 0.00 | 0.00 | 85 | 1017.6 |
| 20260830070018 | 66 | 153 | 0.0 | 0.0 | 0.00 | 0.00 | 0.00 | 85 | 1017.7 |
| 20260830064518 | 66 | 153 | 0.0 | 0.0 | 0.00 | 0.00 | 0.00 | 84 | 1017.7 |
| 20260830063017 | 66 | 153 | 0.0 | 0.0 | 0.00 | 0.00 | 0.00 | 84 | 1017.8 |
| 20260830061524 | 66 | 153 | 0.0 | 0.0 | 0.00 | 0.00 | 0.00 | 85 | 1017.9 |
| 20260830060016 | 66 | 153 | 0.0 | 0.0 | 0.00 | 0.00 | 0.00 | 86 | 1018.0 |
| 20260830054522 | 66 | 153 | 0.0 | 0.0 | 0.00 | 0.00 | 0.00 | 86 | 1018.0 |
| 20260830053016 | 66 | 153 | 0.0 | 0.0 | 0.00 | 0.00 | 0.00 | 85 | 1018.1 |
| 20260830051534 | 66 | 153 | 0.0 | 0.0 | 0.00 | 0.00 | 0.00 | 85 | 1017.9 |
| 20260830050014 | 67 | 153 | 0.0 | 0.0 | 0.00 | 0.00 | 0.00 | 83 | 1018.0 |
| 20260830044511 | 66 | 153 | 0.0 | 0.0 | 0.00 | 0.00 | 0.00 | 83 | 1017.9 |
| 20260830043009 | 66 | 153 | 0.0 | 2.0 | 0.00 | 0.00 | 0.00 | 85 | 1017.5 |
| 20260830041512 | 66 | 157 | 0.0 | 0.0 | 0.00 | 0.00 | 0.00 | 87 | 1017.6 |
| 20260830040003 | 65 | 157 | 0.0 | 0.0 | 0.00 | 0.00 | 0.00 | 87 | 1017.7 |
| 20260830034503 | 65 | 157 | 0.0 | 0.0 | 0.00 | 0.00 | 0.00 | 87 | 1017.7 |
| 20260830033002 | 66 | 157 | 0.0 | 0.0 | 0.00 | 0.00 | 0.00 | 87 | 1017.7 |
| 20260830031502 | 65 | 157 | 0.0 | 0.0 | 0.00 | 0.00 | 0.00 | 87 | 1017.7 |
| 20260830030003 | 66 | 157 | 0.0 | 0.0 | 0.00 | 0.00 | 0.00 | 87 | 1017.7 |
| 20260830024502 | 66 | 157 | 0.0 | 0.0 | 0.00 | 0.00 | 0.00 | 88 | 1017.7 |
| 20260830023118 | 66 | 157 | 0.0 | 0.0 | 0.00 | 0.00 | 0.00 | 88 | 1017.8 |
| 20260830021605 | 67 | 157 | 0.0 | 0.0 | 0.00 | 0.00 | 0.00 | 87 | 1017.7 |
| 20260830020110 | 67 | 157 | 0.0 | 0.0 | 0.00 | 0.00 | 0.00 | 86 | 1017.8 |
| 20260830014600 | 67 | 157 | 0.0 | 0.0 | 0.00 | 0.00 | 0.00 | 85 | 1017.8 |
| 20260830013105 | 68 | 157 | 0.0 | 0.0 | 0.00 | 0.00 | 0.00 | 84 | 1017.9 |
| 20260830011607 | 68 | 157 | 0.0 | 0.0 | 0.00 | 0.00 | 0.00 | 83 | 1017.7 |